Weather History for KHPN - August, 2011

Change the Weather History Date:

Monday, August 22, 2011

  Actual Average Record
Temperature  
Mean Temperature 69 °F -  
Max Temperature 75 °F 77 °F 89 °F (2003)
Min Temperature 63 °F 61 °F 45 °F (1982)
Cooling Degree Days 4    
Growing Degree Days 19 (Base 50)    
Moisture  
Dew Point 57 °F    
Average Humidity 68    
Maximum Humidity 96    
Minimum Humidity 47    
Precipitation  
Precipitation 0.01 in - - ()
Sea Level Pressure  
Sea Level Pressure 29.82 in    
Wind  
Wind Speed 9 mph (WNW)    
Max Wind Speed 17 mph    
Max Gust Speed 23 mph    
Visibility 10 miles    
Events      
Averages and records for this station are not official NWS values.
T = Trace of Precipitation, MM = Missing Value Source: NWS Daily Summary

Daily Weather History Graph

Daily Weather History Graph

Search for Another Location

Airport or City:

Trip Planner

Search our weather history database for the weather conditions in past years. The results will help you decide how hot, cold, wet, or windy it might be!

Date:

Astronomy

Aug. 22, 2011 Rise Set
Actual Time 6:11 AM EDT 7:43 PM EDT
Civil Twilight 5:42 AM EDT 8:12 PM EDT
Nautical Twilight 5:07 AM EDT 8:47 PM EDT
Astronomical Twilight 4:29 AM EDT 9:24 PM EDT
Moon No Moon Rise 2:46 PM EDT (8/22)
Length of Visible Light 14h 30m
Length of Day
13h 32m
Last Quarter, 43% of the Moon is Illuminated
Aug 22
Last Quarter
Aug 28
New
Sep 4
First Quarter
Sep 12
Full
Sep 20
Last Quarter

Hourly Weather History & Observations

Time (EDT) Temp. Dew Point Humidity Pressure Visibility Wind Dir Wind Speed Gust Speed Precip Events Conditions
12:56 AM 69.1 °F 68.0 °F 96% 29.72 in 5.0 mi Calm Calm - 0.01 in   Scattered Clouds
1:56 AM 69.1 °F 66.9 °F 93% 29.72 in 7.0 mi West 8.1 mph - N/A   Partly Cloudy
2:56 AM 69.1 °F 66.0 °F 90% 29.73 in 10.0 mi WNW 10.4 mph - N/A   Clear
3:56 AM 68.0 °F 64.9 °F 90% 29.73 in 10.0 mi NW 9.2 mph - N/A   Clear
4:56 AM 68.0 °F 63.0 °F 84% 29.73 in 10.0 mi WNW 10.4 mph 21.9 mph N/A   Mostly Cloudy
5:56 AM 66.2 °F 60.8 °F 83% 29.75 in 10.0 mi WNW 10.4 mph - N/A   Mostly Cloudy
6:56 AM 64.9 °F 57.0 °F 75% 29.77 in 10.0 mi WNW 13.8 mph - N/A   Mostly Cloudy
7:56 AM 66.0 °F 55.0 °F 68% 29.81 in 10.0 mi NW 13.8 mph - N/A   Scattered Clouds
8:56 AM 66.2 °F 53.6 °F 64% 29.83 in 10.0 mi WNW 15.0 mph 21.9 mph N/A   Partly Cloudy
9:56 AM 69.1 °F 53.1 °F 57% 29.83 in 10.0 mi NW 12.7 mph 20.7 mph N/A   Partly Cloudy
10:56 AM 71.1 °F 55.0 °F 57% 29.84 in 10.0 mi NNW 17.3 mph 23.0 mph N/A   Scattered Clouds
11:56 AM 72.0 °F 54.0 °F 53% 29.84 in 10.0 mi WNW 17.3 mph - N/A   Mostly Cloudy
12:56 PM 73.0 °F 54.0 °F 51% 29.84 in 10.0 mi WNW 13.8 mph 19.6 mph N/A   Clear
1:56 PM 73.9 °F 53.1 °F 48% 29.83 in 10.0 mi WNW 12.7 mph 19.6 mph N/A   Mostly Cloudy
2:56 PM 75.0 °F 54.0 °F 48% 29.83 in 10.0 mi WNW 16.1 mph 20.7 mph N/A   Scattered Clouds
3:56 PM 73.4 °F 51.8 °F 47% 29.85 in 10.0 mi WNW 15.0 mph - N/A   Scattered Clouds
4:56 PM 75.0 °F 54.0 °F 48% 29.83 in 10.0 mi WNW 9.2 mph - N/A   Scattered Clouds
5:56 PM 73.0 °F 53.1 °F 49% 29.85 in 10.0 mi WNW 8.1 mph - N/A   Mostly Cloudy
6:56 PM 72.0 °F 54.0 °F 53% 29.85 in 10.0 mi NW 8.1 mph - N/A   Scattered Clouds
7:56 PM 66.9 °F 55.9 °F 68% 29.87 in 10.0 mi Calm Calm - N/A   Scattered Clouds
8:56 PM 64.0 °F 57.9 °F 80% 29.90 in 10.0 mi Calm Calm - N/A   Clear
9:56 PM 63.0 °F 57.0 °F 81% 29.92 in 10.0 mi Calm Calm - N/A   Clear
10:56 PM 64.9 °F 55.9 °F 73% 29.94 in 10.0 mi WNW 5.8 mph - N/A   Clear
11:56 PM 64.9 °F 54.0 °F 68% 29.95 in 10.0 mi WNW 5.8 mph - N/A   Scattered Clouds